Regional Weather Roundup
Issued by NWS

Home | Current Version | Previous Version | Text Only | Print | Product List | Glossary On
Versions: 1 2 3 4 5 6 7 8 9 10 11 12 13 14 15 16 17 18 19 20 21 22 23 24 25 26 27 28 29 30 31 32 33 34 35 36 37 38 39 40 41 42 43 44 45 46 47 48 49 50
000
ASUS44 KFWD 190001
RWRTX
NORTH TEXAS HOURLY WEATHER ROUNDUP
NATIONAL WEATHER SERVICE FORT WORTH TX
600 PM CST THU DEC 18 2014

NOTE: "FAIR" INDICATES FEW OR NO CLOUDS BELOW 12,000 FEET WITH NO
SIGNIFICANT WEATHER AND/OR OBSTRUCTIONS TO VISIBILITY.

TXZ118-119-190100-
DALLAS/FORT WORTH METROPLEX

CITY           SKY/WX    TMP DP  RH WIND       PRES   REMARKS
DFW AIRPORT    CLOUDY    48  43  82 NE7       30.12S
6HR MIN TEMP:  48; 6HR MAX TEMP:  49;

DALLAS LOVE    CLOUDY    49  44  83 N7        30.14R
6HR MIN TEMP:  48; 6HR MAX TEMP:  50; 6HR PCP: TRACE;

FTW MEACHAM    CLOUDY    50  43  77 NE5       30.12R
6HR MIN TEMP:  48; 6HR MAX TEMP:  51;

DAL-EXECUTIVE  CLOUDY    50  45  83 NE7       30.12R HAZE
FTW-ALLIANCE   CLOUDY    48  44  86 NE6       30.12R
6HR MIN TEMP:  47; 6HR MAX TEMP:  50;

FTW-SPINKS     CLOUDY    48  45  87 N7        30.13R
ARLINGTON      CLOUDY    50  43  77 N10       30.13R
6HR MIN TEMP:  49; 6HR MAX TEMP:  51;

ADDISON        CLOUDY    48  43  81 NE6       30.13
LANCASTER      CLOUDY    48  44  85 NE6       30.13S
6HR MIN TEMP:  46; 6HR MAX TEMP:  48;

$$

TXZ091>094-102>105-117-120-121-131>134-190100-
NORTH CENTRAL TEXAS

CITY           SKY/WX    TMP DP  RH WIND       PRES   REMARKS
SHRMAN/DENISON CLOUDY    45  44  99 CALM      30.16S FOG
6HR MIN TEMP:  43; 6HR MAX TEMP:  45;

BRIDGEPORT     CLOUDY    49  46  88 CALM      30.15R
6HR MIN TEMP:  47; 6HR MAX TEMP:  51;

DENTON         CLOUDY    47  44  90 NE6       30.13R
6HR MIN TEMP:  46; 6HR MAX TEMP:  50;

MCKINNEY       CLOUDY    46  44  93 NE5       30.14S FOG
6HR MIN TEMP:  45; 6HR MAX TEMP:  47;

ROCKWALL       CLOUDY    46  45  98 NE5       30.12S FOG
6HR MIN TEMP:  45; 6HR MAX TEMP:  47;

TERRELL        CLOUDY    49  46  90 NE6       30.14R FOG
6HR MIN TEMP:  48; 6HR MAX TEMP:  50;

WAXAHACHIE     CLOUDY    48  47  99 NE3       30.13R FOG
6HR MIN TEMP:  46; 6HR MAX TEMP:  49; 6HR PCP:  0.01;

$$

TXZ083>090-098>101-113>116-127>130-139>142-154-155-190100-
WESTERN NORTH TEXAS

CITY           SKY/WX    TMP DP  RH WIND       PRES   REMARKS
WICHITA FALLS  CLOUDY    44  42  93 N5        30.15R
6HR MIN TEMP:  44; 6HR MAX TEMP:  46;

WF-KICKAPOO    CLOUDY    45  45 100 N6        30.16R FOG
6HR MIN TEMP:  45; 6HR MAX TEMP:  48;

VERNON         CLOUDY    46  36  68 N5        30.16R
6HR MIN TEMP:  32; 6HR MAX TEMP:  52;

ABILENE        CLOUDY    52  41  66 N12       30.08R
6HR MIN TEMP:  52; 6HR MAX TEMP:  65;

ABILENE-DYESS  MOCLDY    51  40  66 NE12      30.07R
6HR MIN TEMP:  51; 6HR MAX TEMP:  63;

MINERAL WELLS  CLOUDY    48  44  86 NE7       30.09F
6HR MIN TEMP:  48; 6HR MAX TEMP:  51;

STEPHENVILLE   CLOUDY    51  47  86 NE7       30.12R
6HR MIN TEMP:  51; 6HR MAX TEMP:  59;

COMANCHE       CLOUDY    55  52  90 NE9       30.08R
6HR MIN TEMP:  55; 6HR MAX TEMP:  65;

$$

TXZ143>147-156>162-174-175-190100-
CENTRAL TEXAS

CITY           SKY/WX    TMP DP  RH WIND       PRES   REMARKS
WACO           CLOUDY    50  47  89 NE10      30.11R
6HR MIN TEMP:  50; 6HR MAX TEMP:  52;

WACO-TSTC      CLOUDY    50  48  93 NE7       30.10S
WACO-MCGREGOR  CLOUDY    52  45  76 NE9       30.12R
6HR MIN TEMP:  52; 6HR MAX TEMP:  54;

CORSICANA      CLOUDY    50  47  89 N6        30.13R
6HR MIN TEMP:  49; 6HR MAX TEMP:  52;

MEXIA          CLOUDY    49  48  95 NE3       30.11R
6HR MIN TEMP:  49; 6HR MAX TEMP:  51;

HEARNE         CLOUDY    55  54  96 CALM      30.10R FOG
6HR MIN TEMP:  53; 6HR MAX TEMP:  57;

TEMPLE         CLOUDY    52  45  76 NE6       30.10R
6HR MIN TEMP:  52; 6HR MAX TEMP:  57;

KILLEEN        MOCLDY    53  49  88 NE12      30.08R
6HR MIN TEMP:  53; 6HR MAX TEMP:  63;

KILLEEN-SKYLRK CLOUDY    54  45  71 NE8       30.08R
6HR MIN TEMP:  54; 6HR MAX TEMP:  61;

FORT HOOD      MOCLDY    52  48  87 E9        30.08R
6HR MIN TEMP:  52; 6HR MAX TEMP:  61;

HAMILTON       CLOUDY    53  48  85 E9        30.10R
6HR MIN TEMP:  53; 6HR MAX TEMP:  66;

LAMPASAS       MOCLDY    55  51  85 E5        30.06R
6HR MIN TEMP:  55; 6HR MAX TEMP:  65;

$$

TXZ095>097-106>112-122>126-135>138-148>153-164>167-190100-
EAST TEXAS

CITY           SKY/WX    TMP DP  RH WIND       PRES   REMARKS
PARIS          CLOUDY    45  41  87 NE3       30.17R
6HR MIN TEMP:  43; 6HR MAX TEMP:  45;

SULPHUR SPRNGS CLOUDY    46  45  94 CALM      30.17R FOG
6HR MIN TEMP:  44; 6HR MAX TEMP:  46;

MINEOLA        CLOUDY    48  46  93 CALM      30.15R FOG
TYLER          CLOUDY    50  46  86 NE7       30.12R
6HR MIN TEMP:  49; 6HR MAX TEMP:  51;

LONGVIEW       CLOUDY    50  46  86 N6        30.12S FOG
6HR MIN TEMP:  49; 6HR MAX TEMP:  53;

PALESTINE      CLOUDY    51  51  97 N3        30.11S FOG
JACKSONVILLE   CLOUDY    51  50  97 NE3       30.12R FOG
NACOGDOCHES    CLOUDY    54  48  82 CALM      30.12R
6HR MIN TEMP:  52; 6HR MAX TEMP:  55;

LUFKIN         CLOUDY    58  51  78 N5        30.10R
6HR MIN TEMP:  58; 6HR MAX TEMP:  60;

$$

SUPPLEMENTAL OBSERVATIONS (CENTRAL)

CITY           SKY/WX    TMP DP  RH WIND       PRES   REMARKS
$$

SUPPLEMENTAL OBSERVATIONS (WEST)

CITY           SKY/WX    TMP DP  RH WIND       PRES   REMARKS
$$

SUPPLEMENTAL OBSERVATIONS (EAST)

CITY           SKY/WX    TMP DP  RH WIND       PRES   REMARKS
$$

SUPPLEMENTAL OBSERVATIONS ARE A COLLECTION OF AUTOMATED INSTRUMENTS
THAT ARE MAINTAINED BY A VARIETY OF FEDERAL AND STATE AGENCIES.
CERTAIN ELEMENTS...SUCH AS HUMIDITY VALUES AND SUSTAINED WIND
SPEEDS...MAY BE APPROXIMATED.




USA.gov is the U.S. government's official web portal to all federal, state and local government web resources and services.